User: anonymous   Login
Location: Bishop's University Astronomical Observatory
(45.3661°N, 71.8475°W)
Time: 05:31:47
(UTC-05:00)
Language:

Meteor 2-5 Rocket - Orbit

View from above orbital plane
View from above orbital plane
View from above satellite
View from above satellite

Ground track
Ground track

The orbit data is extracted from the following two-line orbital elements,

1 11608U 79095B   16340.76184834  .00000117  00000-0  62970-4 0  9998
2 11608  81.2149  38.7160 0054356 346.8025  13.1718 14.06105532902895
Epoch (UTC): 05 December 2016 18:17:03
Eccentricity: 0.0054356
inclination: 81.2149°
perigee height: 833 km
apogee height: 912 km
right ascension of ascending node: 38.7160°
argument of perigee: 346.8025°
revolutions per day: 14.06105532
mean anomaly at epoch: 13.1718°
orbit number at epoch: 90289

The dashed part of the orbit path shows where the satellite is in the earth's shadow,  

DLR